Location: Bidart
(43.4376°N, 1.5913°W)
Time: 07:51:59
(UTC+00:00)

USA 229 DEB - Pass Details

Date: 20 April 2026
Orbit: 844 x 1364 km, 63.4° (Epoch: 10 January)

Event Time Altitude Azimuth Distance (km) Brightness Sun altitude
Rises 01:24:54 0° 321° (NW) 4,038 7.0 -32.2°
Reaches altitude 10° 01:27:33 10° 318° (NW) 3,142 6.4 -32.0°
Enters shadow 01:33:53 56° 276° (W) 1,496 4.2 -31.5°
